Weather in Greven

Germany     52°05′30″N   7°36′34″E
temp.,
°C
wind,
m/s
gust,
m/s
humid.,
%
clouds,
%
prec.,
mm/h
press.,
hPa
HPBL,
m
24 january, mon
mon2401:00+2s11871 0.0 103510
04:00+2s11880 0.0 103510
07:00+1sse12900 0.0 103410
10:00+3sse11870 0.0 103555
13:00+5sse11730 0.0 1034355
16:00+5sw00760 0.0 103313
19:00+3n11860 0.0 103410
22:00+2n11880 0.0 103410
25 january, tue
tue2501:00+1n11900 0.0 103410
04:00+1nw11910 0.0 103410
07:00+1n11910 0.0 103410
10:00+2e00840 0.0 103459
13:00+5nne11730 0.0 1034354
16:00+4nne00790 0.0 103320
19:00+2nne01870 0.0 103410
22:00+1ssw11900 0.0 103410
26 january, wed
wed2601:00+1wsw11910 0.0 103410
04:00+1wsw11931 0.0 103310
07:000wsw23947 0.0 103385
10:00+1wsw36885 0.0 1033207
13:00+5wsw477797 0.0 1033432
16:00+4wsw4886100 0.0 1032314
19:00+2sw41094100 0.0 1031209
22:00+2sw5129482 0.0 1030290
27 january, thu
thu2701:00+1sw61494100 0.0 1029360
04:00+1sw71690100 0.0 1026416
07:00+2sw81887100 0.0 1024455
10:00+3wsw81788100 0.1 1023554
13:00+3wsw71596100 1.2 1022517
16:00+5w71398100 0.3 1022580
19:00+5wnw71479100 0.6 1023866
22:00+4wnw7148024 0.1 1025937
28 january, fri
fri2801:00+3wnw7148132 0.1 1026907
04:00+3wnw7158426 0.1 1028769
07:00+3wnw614865 0.1 1030554
10:00+3wnw612855 0.0 1032579
13:00+6nw697046 0.0 1034902
16:00+6nw59698 0.0 1034722
19:00+3w379243 0.0 1035136
22:00+3wsw379694 0.0 1035189